This is the latest recevied weather packets stored in our database for station/object F1ZVN-13. If no packets are shown the sender has not sent any weather packets the latest 1 day(s).
| Time | Temp. | Humidity | Pressure | Rain* | Wind** | Luminosity | Snow |
|---|---|---|---|---|---|---|---|
| 1778078072 | 5.56° C | 85% | 1001.5 hPa | 0 mm | 0 m/s | - | - |
| 1778077830 | 5.56° C | 85% | 1001.4 hPa | 0 mm | 0 m/s | - | - |
| 1778077710 | 5.56° C | 85% | 1001.3 hPa | 0 mm | 0 m/s | - | - |
| 1778077586 | 5.56° C | 88% | 1001.1 hPa | 0 mm | 0 m/s | - | - |
| 1778077466 | 5.56° C | 88% | 1001.3 hPa | 0 mm | 0 m/s | - | - |
| 1778076987 | 5.56° C | 92% | 1001.3 hPa | 0 mm | 0 m/s | - | - |
| 1778076496 | 4.44° C | 91% | 1001.4 hPa | 0 mm | 0 m/s | - | - |
| 1778076011 | 3.89° C | 89% | 1001.4 hPa | 0 mm | 0 m/s | - | - |
| 1778075646 | 3.89° C | 87% | 1001.4 hPa | 0 mm | 0 m/s | - | - |
| 1778075162 | 3.89° C | 88% | 1001.4 hPa | 0 mm | 0 m/s | - | - |
| 1778074678 | 3.33° C | 86% | 1001.4 hPa | 0 mm | 0 m/s | - | - |
| 1778074561 | 3.89° C | 86% | 1001.3 hPa | 0 mm | 0 m/s | - | - |
| 1778074472 | 3.89° C | 84% | 1001.3 hPa | 0 mm | 0 m/s | - | - |
| 1778074071 | 4.44° C | 83% | 1001.1 hPa | 0 mm | 0 m/s | - | - |
| 1778073496 | 5° C | 79% | 1001.3 hPa | 0 mm | 0 m/s | - | - |
| 1778072616 | 3.89° C | 82% | 1001.3 hPa | 0 mm | 0 m/s | - | - |
| 1778072304 | 5° C | 80% | 1001.3 hPa | 0 mm | 0 m/s | - | - |
| 1778072131 | 5.56° C | 77% | 1001.3 hPa | 0 mm | 0 m/s | - | - |
| 1778072012 | 6.11° C | 75% | 1001.1 hPa | 0 mm | 0 m/s | - | - |
| 1778072011 | 6.11° C | 75% | 1001.1 hPa | 0 mm | 0 m/s | - | - |
| 1778071646 | 6.11° C | 81% | 1001.1 hPa | 0 mm | 0 m/s | - | - |
| 1778071405 | 5.56° C | 83% | 1001.3 hPa | 0 mm | 0 m/s | - | - |
| 1778071161 | 4.44° C | 85% | 1001.3 hPa | 0 mm | 0 m/s | - | - |
| 1778071038 | 4.44° C | 85% | 1001.3 hPa | 0 mm | 0 m/s | - | - |
| 1778070918 | 4.44° C | 83% | 1001.3 hPa | 0 mm | 0 m/s | - | - |
* Rain latest hour (hover to see other rain measurements)
** Current wind speed in m/s (hover to see current wind gust speed)